Theta_e
329 328 327 329 333 333 334 330 324 323 326 325 323 323 324 322 322 323 323 324 334 332 331 331 329 328 324 321 321 322 320 321 323 321 321 320 318 314 307 306 306 306 306
330 329 328 328 334 332 332 330 327 322 326 324 323 323 323 323 322 322 321 322 325 331 331 331 330 327 324 323 322 320 323 320 319 319 319 319 316 312 307 307 306 306 306
330 329 325 327 329 331 331 331 329 323 326 324 322 322 322 322 322 321 321 321 321 322 324 327 327 327 324 323 322 320 322 321 319 319 319 318 315 308 305 305 304 304 305
333 332 328 326 328 329 329 330 329 324 323 325 322 321 320 321 319 321 320 320 321 320 321 322 322 321 322 321 319 319 322 320 317 317 317 314 310 304 304 304 304 304 304
329 330 331 330 328 328 329 330 330 326 322 325 324 322 322 321 319 319 320 320 320 320 319 318 320 319 321 319 318 321 324 320 317 317 314 310 305 305 304 303 303 303 304
323 326 327 330 330 329 328 329 330 328 320 320 325 322 322 321 319 319 320 320 319 317 316 318 319 318 319 316 320 325 323 320 312 313 308 308 305 306 304 302 302 302 303
322 321 322 324 329 330 329 328 329 328 319 319 325 322 321 321 319 320 320 319 318 317 317 317 317 318 318 317 320 324 323 319 313 314 304 304 304 304 305 302 302 302 302
322 323 322 323 323 326 329 329 329 328 321 320 325 323 321 320 318 319 319 318 318 317 317 317 317 319 321 318 318 319 321 320 318 314 316 315 305 302 302 302 301 301 301
323 321 323 324 323 322 325 327 328 329 323 321 325 323 320 320 319 319 319 319 318 318 317 317 316 317 320 318 317 317 317 319 318 317 317 316 316 310 302 304 303 301 301
320 319 319 320 323 324 322 324 325 328 325 319 325 323 321 320 320 319 319 319 319 318 317 317 316 316 317 317 317 316 317 318 318 318 317 316 315 315 312 306 307 304 301
318 318 318 318 318 319 324 322 324 326 328 321 321 324 321 321 320 320 319 319 320 319 318 318 317 316 316 316 317 317 317 317 316 316 318 317 316 314 313 312 310 308 304
317 317 317 316 316 317 318 322 322 324 326 324 318 324 322 321 320 319 318 318 319 319 319 318 317 316 316 316 316 316 316 316 316 315 314 315 315 315 313 313 312 309 306
316 318 317 316 316 315 317 318 320 323 324 326 321 321 323 322 322 321 319 319 319 320 319 318 317 317 317 315 316 315 315 315 315 315 315 314 314 314 314 313 312 311 309
311 316 320 318 318 318 317 318 320 321 321 324 325 322 323 323 323 323 321 322 320 319 319 318 318 317 317 316 315 315 313 315 315 315 314 314 313 313 312 313 312 312 311
308 311 315 318 322 322 318 318 320 321 320 322 324 325 324 325 324 323 322 322 321 320 318 319 318 319 319 318 317 315 315 314 314 314 314 313 313 313 312 313 312 311 311
305 310 313 314 317 322 319 319 322 320 320 321 324 323 324 324 324 324 322 323 321 321 320 320 320 319 319 318 317 316 316 315 314 314 314 314 313 313 313 312 312 311 311
302 309 312 311 317 320 319 319 320 318 321 324 325 322 322 323 323 322 323 322 322 321 321 320 320 318 318 318 317 316 316 316 315 315 315 314 314 314 313 313 312 312 311
297 302 309 314 317 319 318 319 319 320 323 323 321 322 321 322 321 321 323 322 321 320 319 319 320 319 317 316 317 316 316 316 316 316 316 315 315 314 314 313 312 312 310
294 296 307 312 315 318 319 318 318 320 322 324 322 322 320 321 321 320 319 320 320 318 319 318 319 317 317 317 317 316 316 316 317 316 316 315 315 315 314 313 312 312 311
291 294 302 306 313 316 318 318 318 320 322 323 322 323 322 322 319 321 321 320 319 319 318 318 318 318 317 317 317 316 316 316 315 315 314 314 314 314 314 314 313 312 310
290 292 294 300 306 309 314 318 318 320 320 321 320 318 318 319 319 319 318 318 318 317 316 316 315 316 316 316 316 315 315 315 315 315 314 314 312 313 313 313 313 312 312
288 292 292 295 298 303 311 315 318 317 320 319 318 317 318 318 317 317 317 316 316 316 316 316 316 314 315 314 314 313 312 311 312 311 312 312 313 312 312 313 313 312 312
287 289 291 292 295 299 299 305 316 317 317 316 317 316 315 316 315 315 315 315 315 315 316 315 314 315 314 313 312 311 311 311 312 311 311 312 312 312 312 312 312 311 311
287 288 290 288 294 294 298 301 310 314 314 314 313 314 315 313 314 314 316 316 315 314 314 314 314 313 312 311 311 311 312 312 312 311 311 311 310 311 311 311 311 311 311
286 287 288 290 291 292 293 296 304 308 311 312 312 313 313 313 313 313 313 313 313 313 313 312 313 312 312 311 311 310 311 311 311 311 311 311 310 311 310 309 310 310 310
285 286 286 288 290 291 292 294 297 302 306 309 310 311 311 312 311 312 311 310 310 311 311 311 312 311 310 310 310 309 310 309 309 309 309 310 309 309 308 309 309 309 309
Wind_Speed
33 30 27 27 28 27 23 19 18 21 22 21 18 16 17 14 14 11 9 10 14 18 20 21 18 13 7 5 6 9 10 11 12 11 9 8 6 6 6 4 4 4 4
29 26 28 29 29 27 23 20 19 22 24 23 22 22 19 16 15 14 11 6 7 14 19 18 15 13 13 11 9 6 9 12 13 13 14 10 7 7 4 4 3 3 3
29 26 29 29 29 28 26 22 21 23 26 26 24 23 23 23 17 16 13 9 7 9 9 12 12 15 15 14 17 13 16 13 12 13 14 12 10 7 5 3 2 1 1
30 29 30 30 29 29 28 25 24 26 30 31 26 22 19 21 20 20 16 14 13 12 12 13 13 14 16 17 15 14 18 15 10 9 13 10 9 8 6 4 2 1 1
33 32 32 32 32 31 31 31 28 27 30 34 31 23 22 20 22 21 22 20 19 20 20 20 20 19 19 20 14 17 19 15 11 11 11 7 9 7 6 5 4 4 3
34 34 34 33 33 34 34 32 32 28 30 35 32 27 24 21 19 22 23 21 19 16 15 18 24 21 17 12 17 19 18 12 10 10 9 7 8 9 8 6 6 5 5
34 36 35 35 34 36 35 34 33 30 31 34 34 29 26 25 23 23 22 22 21 16 16 16 17 16 17 14 18 22 20 12 7 4 4 4 6 9 9 8 7 6 5
35 35 37 37 36 36 37 37 37 35 34 37 39 34 28 28 29 28 27 26 23 20 18 16 20 17 22 15 16 12 17 15 14 11 6 4 5 7 9 9 8 8 7
33 36 37 37 37 36 37 38 39 39 38 39 42 31 19 18 32 35 33 31 28 26 21 20 20 20 19 19 18 16 18 19 17 12 13 8 8 8 9 10 10 10 9
36 33 35 35 36 37 39 38 39 41 41 43 44 42 28 20 21 19 37 36 33 31 26 24 23 22 21 21 20 18 18 19 14 14 16 14 13 12 10 11 11 12 12
36 36 36 39 40 39 40 40 40 43 43 44 51 47 39 31 23 22 26 41 38 36 32 30 22 25 25 24 22 21 21 21 17 18 15 16 16 16 15 13 13 13 14
30 35 37 39 43 45 44 42 42 41 45 46 49 56 51 43 31 25 22 31 43 39 35 33 30 24 27 27 26 23 22 22 22 21 19 18 17 17 16 14 14 15 15
28 27 36 40 43 47 48 46 43 41 44 46 48 54 56 51 44 34 25 14 25 37 36 35 34 28 24 26 30 26 25 26 24 22 21 20 19 19 19 18 17 17 16
29 32 29 39 42 44 48 49 47 44 43 46 48 50 53 55 53 48 44 29 16 17 28 35 35 32 27 23 23 27 25 25 26 24 23 22 21 21 22 21 23 23 23
31 35 33 37 41 45 46 50 51 48 46 45 50 50 52 50 51 54 46 34 23 23 26 26 28 19 21 24 23 23 24 24 25 26 25 23 23 23 22 24 24 26 27
26 36 34 40 42 44 46 48 48 47 47 46 46 47 47 46 45 48 50 41 32 33 26 24 25 20 16 17 19 23 24 25 26 26 28 29 27 27 28 29 29 28 30
15 31 30 43 46 44 48 51 50 46 44 45 44 44 44 46 44 39 43 45 36 34 33 29 23 21 20 20 19 19 21 23 24 24 26 26 28 29 30 32 31 32 33
8 13 39 37 43 46 45 49 48 45 46 45 44 42 43 43 42 36 39 43 39 36 33 33 27 23 23 21 22 22 22 23 23 25 25 27 28 29 30 32 33 33 34
13 8 18 40 37 42 45 49 48 48 46 44 43 41 39 37 34 33 33 30 29 27 30 33 24 24 23 25 24 24 23 25 28 28 28 30 30 31 31 31 34 35 35
17 12 8 14 31 33 45 49 48 47 45 42 40 37 36 33 32 34 31 32 30 29 28 27 26 27 25 26 26 24 24 25 26 26 26 27 29 30 32 32 32 35 35
17 13 11 5 15 19 29 45 45 43 41 38 35 35 30 29 28 27 28 28 28 28 28 28 29 27 27 27 27 25 25 25 28 30 33 32 32 32 35 36 36 37 35
14 14 11 10 11 17 18 36 40 43 37 35 32 29 27 24 23 24 25 24 24 26 28 27 28 28 26 25 24 25 25 29 32 33 35 33 32 34 34 34 35 34 34
16 12 15 14 7 11 8 13 40 39 36 32 29 27 26 25 24 24 25 25 25 23 25 25 27 29 27 25 25 28 30 32 33 29 32 35 33 37 33 33 32 32 35
18 14 11 13 13 11 11 10 23 30 29 28 29 27 25 24 23 22 22 24 24 26 30 30 29 27 25 28 29 30 27 25 28 33 35 40 39 38 34 36 35 34 33
17 12 11 12 10 8 3 7 16 20 26 26 25 24 23 27 28 24 22 24 27 28 26 26 26 26 26 26 27 28 33 33 33 35 31 35 38 38 38 38 35 38 35
15 15 10 7 7 6 5 5 4 8 15 19 21 23 22 22 22 24 26 26 28 28 26 27 28 28 26 28 27 27 28 31 31 34 32 33 33 31 33 32 32 30 31
Wind_Direction
214 212 216 218 218 215 216 218 211 204 196 184 181 188 196 197 205 225 236 229 151 179 178 173 169 165 189 216 228 195 214 211 188 204 230 226 264 281 228 164 125 103 91
227 223 218 218 219 224 219 218 217 208 199 192 187 190 197 199 210 227 231 258 220 158 170 179 192 190 230 229 235 225 216 211 224 221 231 254 273 268 192 159 148 131 115
233 227 227 228 224 225 226 216 214 210 203 198 198 204 208 206 204 220 227 243 250 239 207 193 193 216 228 251 256 254 224 226 226 224 235 246 252 242 210 204 184 163 62
242 235 233 232 234 231 228 220 215 210 208 205 199 203 218 212 208 212 217 233 245 252 240 237 242 250 252 263 274 224 210 219 236 226 235 235 224 214 211 207 221 240 275
240 239 236 233 235 235 233 225 216 214 210 210 208 217 219 224 215 213 222 219 231 244 249 248 247 257 251 264 238 198 201 234 216 231 253 221 211 210 217 222 231 241 255
240 239 239 237 235 235 235 229 222 215 214 213 209 217 219 214 216 221 217 216 222 238 228 228 239 240 230 230 204 192 209 233 284 256 248 221 210 217 224 231 244 260 278
241 241 240 240 238 236 236 236 228 217 214 209 206 215 218 213 217 215 220 223 221 225 223 240 224 216 205 213 210 210 216 211 254 311 284 269 243 231 230 237 244 255 270
241 241 241 240 239 240 237 235 231 220 215 205 204 207 208 215 217 217 221 223 226 226 226 230 217 219 211 209 231 231 224 226 248 267 293 325 305 272 255 252 252 257 261
233 240 242 242 240 240 239 237 232 225 213 205 205 200 194 210 211 218 222 225 226 227 225 227 224 225 214 213 220 246 238 233 230 253 273 287 305 308 269 251 253 258 262
231 234 239 241 243 241 240 239 237 229 221 209 206 210 208 205 200 215 219 222 224 227 223 227 222 225 226 220 225 230 230 247 245 235 251 268 283 298 290 258 247 252 262
230 231 237 243 244 243 241 240 236 230 227 220 210 207 212 217 219 211 213 217 221 222 221 226 236 219 225 226 225 224 230 237 248 252 251 249 262 281 282 264 239 245 256
238 238 237 240 243 246 241 239 238 236 230 225 219 214 214 214 218 215 217 220 220 221 222 225 233 227 227 227 231 230 235 238 244 247 248 247 256 265 273 252 239 246 254
245 242 247 240 241 242 241 237 235 234 231 229 224 222 221 223 224 231 227 208 223 227 225 228 233 236 236 233 230 231 234 240 242 246 251 252 253 258 258 267 261 263 280
251 240 241 247 238 238 237 233 233 232 233 234 231 226 226 226 228 230 229 231 229 246 242 238 238 239 236 236 230 231 236 238 241 244 248 253 252 257 259 264 270 274 276
252 246 238 241 236 231 235 231 229 228 231 232 231 231 231 231 232 227 235 231 224 227 248 234 234 231 235 236 233 234 238 241 245 247 249 250 249 252 260 263 270 272 273
252 247 240 243 235 228 231 228 226 227 227 227 227 231 232 236 236 239 237 238 242 234 227 232 230 234 231 229 240 243 245 248 250 252 253 253 252 252 255 260 260 267 269
261 237 241 234 235 225 229 224 225 225 222 219 217 230 233 231 238 240 239 237 235 234 228 234 230 234 233 236 233 235 241 244 246 249 254 256 256 255 254 254 259 263 266
323 247 232 236 230 228 230 224 222 219 218 217 215 222 222 226 229 237 237 234 236 231 231 242 234 237 242 240 241 246 245 247 247 250 250 255 260 262 261 259 255 255 259
341 329 219 224 227 216 223 223 220 217 216 215 216 216 219 220 222 224 229 229 225 227 237 233 236 241 242 243 245 249 250 256 255 253 254 257 258 263 265 265 258 257 258
338 357 244 206 209 203 218 219 214 213 211 212 214 212 211 212 218 222 219 223 224 225 228 234 237 240 242 241 248 250 252 252 261 260 266 262 262 262 262 264 267 264 260
350 350 27 121 162 185 191 206 207 207 202 200 202 210 212 213 214 216 219 218 222 224 227 231 234 237 242 247 253 260 262 263 265 263 266 265 266 263 268 262 264 266 266
348 -0 8 47 106 149 181 180 195 195 195 194 201 205 203 200 203 209 217 222 225 228 231 233 239 245 247 251 261 262 268 273 273 276 274 272 269 277 276 264 268 265 269
342 357 359 15 25 99 80 131 171 182 185 189 195 199 202 203 208 214 224 227 230 230 236 239 246 250 253 259 273 275 275 275 274 277 281 281 275 275 276 274 266 270 268
336 346 1 351 27 8 53 79 152 172 179 187 197 201 200 204 208 213 213 217 226 233 233 239 247 252 262 269 270 275 276 274 268 271 277 274 280 279 278 275 273 276 272
329 337 342 355 17 357 39 50 131 159 179 184 193 199 205 212 212 215 220 227 234 240 242 247 252 256 256 258 261 263 263 269 269 271 271 276 275 277 278 276 274 275 272
320 324 342 349 7 346 51 19 114 143 159 173 187 203 208 214 217 222 228 232 242 250 251 249 247 250 253 258 260 260 259 261 266 272 272 268 277 277 278 279 277 274 270